Cozumel, Mexico

5:58 AM on March 25, 2017 (GMT +0000)
Cozumel International

Weather History for MMCZ - January, 2013

Change the Weather History Date:

Monday, January 7, 2013

  Actual Average Record
Temperature  
Mean Temperature 74 °F -  
Max Temperature 80 °F 80 °F 86 °F (1997)
Min Temperature 68 °F 68 °F 53 °F (2011)
Cooling Degree Days 9    
Growing Degree Days 24 (Base 50)    
Moisture  
Dew Point 60 °F    
Average Humidity 65    
Maximum Humidity 88    
Minimum Humidity 45    
Precipitation  
Precipitation 3.85 in - - ()
Sea Level Pressure  
Sea Level Pressure 30.03 in    
Wind  
Wind Speed 3 mph ()    
Max Wind Speed 13 mph    
Max Gust Speed -    
Visibility 7.6 miles    
Events      
Averages and records for this station are not official NWS values.
T = Trace of Precipitation, MM = Missing Value Source: Averaged Metar Reports

Daily Weather History Graph

Daily Weather History Graph

Search for Another Location

Airport or City:

Trip Planner

Search our weather history database for the weather conditions in past years. The results will help you decide how hot, cold, wet, or windy it might be!

Date:

Astronomy

Jan. 07, 2013 Rise Set
Actual Time 6:25 AM CST 5:22 PM CST
Civil Twilight 6:01 AM CST 5:46 PM CST
Nautical Twilight 5:34 AM CST 6:14 PM CST
Astronomical Twilight 5:07 AM CST 6:41 PM CST
Moon 1:57 AM CST (1/7) 1:27 PM CST (1/7)
Length of Visible Light 11h 45m
Length of Day
10h 57m
Waning Crescent, 22% of the Moon is Illuminated
Jan 7
Waning Crescent
Jan 11
New
Jan 18
First Quarter
Jan 26
Full
Feb 3
Last Quarter

Hourly Weather History & Observations

Time (CST) Temp. Heat Index Dew Point Humidity Pressure Visibility Wind Dir Wind Speed Gust Speed Precip Events Conditions
12:49 AM 68.0 °F - 64.4 °F 88% 30.06 in 7.0 mi Calm Calm - N/A   Scattered Clouds
1:46 AM 69.8 °F - 66.2 °F 88% 30.04 in 7.0 mi Calm Calm - N/A   Scattered Clouds
2:43 AM 68.0 °F - 64.4 °F 88% 30.07 in 7.0 mi Calm Calm - N/A   Scattered Clouds
3:40 AM 71.6 °F - 68.0 °F 88% 30.02 in 7.0 mi Calm Calm - N/A   Scattered Clouds
5:54 AM 71.6 °F - 64.4 °F 78% 30.01 in 7.0 mi Calm Calm - N/A   Mostly Cloudy
6:50 AM 71.6 °F - 59.0 °F 64% 30.05 in 8.0 mi ENE 3.5 mph - N/A   Mostly Cloudy
7:43 AM 73.4 °F - 60.8 °F 65% 30.07 in 8.0 mi ENE 8.1 mph - N/A   Mostly Cloudy
8:44 AM 75.2 °F - 60.8 °F 61% 30.11 in 8.0 mi ENE 6.9 mph - N/A   Scattered Clouds
9:51 AM 77.0 °F - 59.0 °F 54% 30.08 in 8.0 mi ENE 10.4 mph - N/A   Scattered Clouds
10:44 AM 77.0 °F - 60.8 °F 57% 30.07 in 8.0 mi East 5.8 mph - N/A   Mostly Cloudy
11:42 AM 77.0 °F - 59.0 °F 54% 29.99 in 8.0 mi ENE 6.9 mph - N/A   Mostly Cloudy
12:46 PM 80.6 °F 80.8 °F 57.2 °F 45% 30.01 in 8.0 mi ESE 12.7 mph - N/A   Scattered Clouds
1:48 PM 78.8 °F - 57.2 °F 47% 30.00 in 8.0 mi East 6.9 mph - N/A   Mostly Cloudy
2:40 PM 78.8 °F - 57.2 °F 47% 30.01 in 8.0 mi East 9.2 mph - N/A   Mostly Cloudy
3:41 PM 78.8 °F - 57.2 °F 47% 29.99 in 8.0 mi East 9.2 mph - N/A   Mostly Cloudy
4:42 PM 75.2 °F - 57.2 °F 53% 30.00 in 8.0 mi East 4.6 mph - N/A   Mostly Cloudy
5:43 PM 73.4 °F - 62.6 °F 69% 29.96 in 8.0 mi East 3.5 mph - N/A   Mostly Cloudy
6:42 PM 69.8 °F - 57.2 °F 64% 30.00 in 8.0 mi East 4.6 mph - N/A   Scattered Clouds
7:49 PM 69.8 °F - 60.8 °F 73% 30.02 in 7.0 mi ENE 3.5 mph - N/A   Scattered Clouds
8:45 PM 68.0 °F - 57.2 °F 68% 30.06 in 7.0 mi Calm Calm - N/A   Scattered Clouds
9:44 PM 68.0 °F - 57.2 °F 68% 30.04 in 7.0 mi East 3.5 mph - N/A   Scattered Clouds
10:49 PM 68.0 °F - 59.0 °F 73% 30.03 in 8.0 mi Calm Calm - N/A   Scattered Clouds